Showing default

QSS, 41731

Orbit data source: Space-Track

QSS, 41731 is a payload satellite owned by CAS (CN) in SSO that was launched on Mon, 15 Aug 2016 UTC via a CHANG ZHENG 2D launch vehicle from the Jiuquan Satellite Launch Center, China (JSC). Payloads include a variety of satellites, spacecraft, and rockets equipped with specific instruments for various scientific and technological missions. These include communications satellites like Starlink; space stations such as the ISS; scientific satellites like the Hubble; Earth observation satellites from companies like Planet Labs, Umbra, and HawkEye 360; GPS; miniature CubeSats for education and research; and military/defense satellites.

Loading next visibility...
QSS details
Identifier
41731, 2016-051A
Orbit
SSO
Last TLE update11 hours ago
Origin
Flag of CNCAS (CN / PRC)
ManufacturerSECM/USTC
MissionOperational Civil Technology
Bus & MotorCAST-2000?, AOCS
Mass640 kg wet, ~500 kg dry
Launch date (UTC)
2016-08-15 (8 years ago)
Launch vehicle
CHANG ZHENG 2D
Launch site
Jiuquan Satellite Launch Center, China (JSC)
Object type
Payload
Rocket body
Debris
Shape & HBRBox + 2 Pan, 4 m
Radar Cross Section5.141 m², Large (>1 m²)

Expand to show TLE details & history

TLE from 11 hours ago
0 QSS
1 41731U 16051A   25013.95587697  .00014976  00000-0  30730-3 0  9999
2 41731  97.3054 291.9880 0008217 166.1070 194.0407 15.46095112469167
Epoch: 2025-01-13T22:56Z
Definitive object data (Epoch: 2025-01-13T22:56:27.77Z)
Latitude-0.00002°
Longitude-165.7972°
Altitude436.718 km
Speed7.647 km/s
True Right ascension19h 27m 57s
True Declination0° 00' 00"
Sunlit
Object was in daylight at TLE epoch
Visualization TLE readout
Latitude18.98072°
Longitude-167.85045°
Altitude435.339 km
Speed7.65 km/s
Apparent Right ascension20h 41m 01s
Apparent Declination-10° 10' 51"
Sunlit
Object is in daylight
Visualization observer readout
Local Sidereal Time10:29:47
Azimuth46.54° ENE
Elevation-51.712°
Doppler factor1
Orbital elements
Apogee altitude430.679 km
Perigee altitude419.499 km
Semi-major axis6,803.226 km
Eccentricity0.0008217
Inclination97.3054°
RAAN291.988°
Arg. of periapsis166.107°
True anomaly194.01788°
Mean anomaly194.0407°
Eccentric anomaly194.02929°
Mean motion3.86786 °/min
BSTAR0.0003073
Orbital period93.07 mins
Loading maneuver chart data...
Loading historical data...
Loading historical data...
Loading historical data...
Loading historical data...
Loading historical data...
Loading historical data...
Loading historical data...
Other satellites on launch #51 in the year 2016 (2016-08-15 UTC)

QSS Visibility forecast

Observer location: undefined°, undefined

Span
Click to sort rows by Start time (UTC) header in descending order
Start Az.
Max El. time (UTC)
Max El. Az.
Max El.
End time (UTC)
End Az.
4 mins2025-01-14 17:43:47.060Z115.502° SE2025-01-14 17:45:47.060Z72.37° E19.499°2025-01-14 17:47:47.060Z27.595° NE
|